Aérodrome :
LOGIN :

S'inscrire | Disclaimer

   EN    FR    IT 

 










Légende :    VFR   VFR Marginal   IFR   IFR Intensif   IFR Très Intensif
Visi : 
Plafond : 
>= 8 km
>= 3000ft
5 à 8 km
1000 à 3000 ft
1500m à 5 km
500 à 1000 ft
800 à 1500m
200 à 500 ft
< 800m
< 200 ft
Symboles :   Orages  Brouillard  Fortes neiges  Fortes précipitations  Vent > 20 kt
SIGMETs :   Divers  Orages  Givrage  Turbulence  Onde Orograph.  Cendres Volcan.







- Altitude de l'aérodrome : 5600 ft
- Code IATA : SMV


LSZS - Samedan

DERNIER METAR :
  • 221150Z 18008KT 9999 BKN058 BKN068 13/03 Q1016 RMK M

METARs EXPIRÉS :
  • 221120Z 16009KT 9999 BKN055 13/02 Q1016 RMK L
  • 221050Z 03007KT 9999 BKN055 13/02 Q1016 RMK K
  • 221020Z 03008KT 9999 SCT055 BKN150 13/03 Q1016 RMK J
  • 220950Z 02009KT 9999 FEW045 BKN150 12/02 Q1015 RMK I
  • 220920Z 03010KT 9999 FEW045 BKN150 12/04 Q1015 RMK H

TAF TAF LSZS
Valide du 22 à 12h jusqu'au 22 à 21h UTC


221125Z 2212/2221 VRB03KT 9999 BKN050 TX14/2213Z
TEMPO 2212/2221 22010KT RA
PROB30
TEMPO 2213/2218 22015G28KT 3000 TSRA SCT030CB
ATIS : +41 81 834 93 24
Pas de NOTAMs connus pour ce terrain.



MET'MAP, la Météo Aéronautique d'un coup d'oeil ! - Copyright ORBIFLY Décembre 2007 - Disclaimer

ORBIFLY MET'MAP TEAM :

Programmation & Développement : Alexandra Zaïnal
Conception & Développement : Baudouin d'Aumeries
Co-Programmation & Développement : Marc-Olivier Méhu
Soutien technique & logistique : Manuel Goepfert

Contact : metmap@orbifly.com




SOURCES & CREDITS :

   NOAA